Location: Monroe
(41.9160°N, 83.3980°W)
Time: 06:16:07
(UTC-04:00)

ISS - All Passes

Search period start: 21 April 2014 00:00
Search period end: 01 May 2014 00:00
Orbit: 414 x 419 km, 51.6° (Epoch: 21 April)

Date Brightness Start Highest point End Pass type
(mag) Time Alt. Az. Time Alt. Az. Time Alt. Az.
21 Apr - 14:13:14 10° SE 14:14:09 11° SE 14:15:04 10° ESE daylight
21 Apr - 15:47:03 10° SW 15:50:23 89° NW 15:53:45 10° NE daylight
21 Apr - 17:24:50 10° WNW 17:27:30 21° NNW 17:30:10 10° NE daylight
21 Apr - 19:03:00 10° NW 19:05:08 16° N 19:07:17 10° NE daylight
21 Apr - 20:39:37 10° NW 20:42:39 31° NNE 20:45:41 10° E daylight
21 Apr - 22:16:16 10° WNW 22:19:27 41° SW 22:22:37 10° SSE visible
22 Apr - 14:58:36 10° SW 15:01:51 52° SE 15:05:07 10° ENE daylight
22 Apr - 16:35:49 10° W 16:38:44 27° NNW 16:41:40 10° NE daylight
22 Apr - 18:14:11 10° NW 18:16:18 15° N 18:18:24 10° NE daylight
22 Apr - 19:51:08 10° NW 19:53:54 23° NNE 19:56:41 10° ENE daylight
22 Apr - 21:27:34 10° WNW 21:30:55 73° SW 21:34:15 10° SE visible
23 Apr - 14:10:22 10° SSW 14:13:19 29° SE 14:16:16 10° ENE daylight
23 Apr - 15:46:49 10° W 15:49:58 38° NNW 15:53:08 10° NE daylight
23 Apr - 17:25:11 10° NW 17:27:23 16° N 17:29:36 10° NE daylight
23 Apr - 19:02:33 10° NW 19:05:03 19° NNE 19:07:33 10° ENE daylight
23 Apr - 20:38:55 10° NW 20:42:16 66° NNE 20:45:35 10° ESE daylight
23 Apr - 22:16:36 10° W 22:18:38 15° SW 22:20:39 10° SSW visible
24 Apr - 13:22:30 10° S 13:24:46 17° SE 13:27:03 10° E daylight
24 Apr - 14:57:54 10° WSW 15:01:11 58° NNW 15:04:30 10° NE daylight
24 Apr - 16:36:01 10° WNW 16:38:26 18° NNW 16:40:52 10° NE daylight
24 Apr - 18:13:51 10° NW 18:16:06 17° N 18:18:22 10° NE daylight
24 Apr - 19:50:16 10° NW 19:53:29 41° NNE 19:56:41 10° E daylight
24 Apr - 21:27:14 10° WNW 21:30:05 26° SW 21:32:55 10° SSE visible
25 Apr - 14:09:05 10° SW 14:12:24 84° SE 14:15:45 10° ENE daylight
25 Apr - 15:46:46 10° WNW 15:49:27 22° NNW 15:52:09 10° NE daylight
25 Apr - 17:24:58 10° NW 17:27:04 16° N 17:29:11 10° NE daylight
25 Apr - 19:01:36 10° NW 19:04:35 29° NNE 19:07:34 10° E daylight
25 Apr - 20:38:11 10° WNW 20:41:24 45° SW 20:44:37 10° SSE daylight
26 Apr - 13:20:25 10° SW 13:23:37 47° SE 13:26:51 10° ENE daylight
26 Apr - 14:57:30 10° W 15:00:27 29° NNW 15:03:25 10° NE daylight
26 Apr - 16:35:52 10° NW 16:37:58 15° N 16:40:04 10° NE daylight
26 Apr - 18:12:52 10° NW 18:15:35 22° NNE 18:18:17 10° ENE daylight
26 Apr - 19:49:16 10° WNW 19:52:37 81° SW 19:55:56 10° SE daylight
27 Apr - 12:32:00 10° SSW 12:34:50 26° SE 12:37:42 10° ENE daylight
27 Apr - 14:08:16 10° W 14:11:26 40° NNW 14:14:37 10° NE daylight
27 Apr - 15:46:34 10° NW 15:48:48 17° N 15:51:03 10° NE daylight
27 Apr - 17:24:01 10° NW 17:26:28 18° NNE 17:28:54 10° ENE daylight
27 Apr - 19:00:22 10° NW 19:03:41 60° NNE 19:06:59 10° ESE daylight
27 Apr - 20:37:51 10° W 20:40:05 17° SW 20:42:19 10° S daylight
28 Apr - 11:44:01 10° S 11:46:03 15° SE 11:48:06 10° E daylight
28 Apr - 13:19:06 10° WSW 13:22:25 65° NNW 13:25:44 10° NE daylight
28 Apr - 14:57:08 10° WNW 14:59:36 19° NNW 15:02:05 10° NE daylight
28 Apr - 16:35:03 10° NW 16:37:15 16° N 16:39:27 10° NE daylight
28 Apr - 18:11:29 10° NW 18:14:38 38° NNE 18:17:47 10° E daylight
28 Apr - 19:48:20 10° WNW 19:51:16 29° SW 19:54:11 10° SSE daylight
29 Apr - 12:30:05 10° SW 12:33:23 74° SE 12:36:43 10° ENE daylight
29 Apr - 14:07:38 10° WNW 14:10:22 23° NNW 14:13:07 10° NE daylight
29 Apr - 15:45:52 10° NW 15:47:57 15° N 15:50:02 10° NE daylight
29 Apr - 17:22:33 10° NW 17:25:29 27° NNE 17:28:23 10° E daylight
29 Apr - 18:59:04 10° WNW 19:02:20 51° SW 19:05:34 10° SE daylight
30 Apr - 11:41:13 10° SSW 11:44:22 41° SE 11:47:31 10° ENE daylight
30 Apr - 13:18:07 10° W 13:21:07 31° NNW 13:24:08 10° NE daylight
30 Apr - 14:56:29 10° NW 14:58:36 16° N 15:00:42 10° NE daylight
30 Apr - 16:33:33 10° NW 16:36:12 21° NNE 16:38:50 10° ENE daylight
30 Apr - 18:09:55 10° NW 18:13:15 89° NNE 18:16:35 10° SE daylight
30 Apr - 19:48:35 10° WSW 19:49:28 11° SW 19:50:21 10° SW daylight
